| time (UTC) | temp C | wind direction | speed KPH | gust KPH | rain 1hr cm | rain 24hr cm | rain mn cm | humidity % | barometer mb |
| 20260906191611 | 26 | 94 | 4.8 | 16.1 | 0.00 | 0.00 | 0.00 | 66 | 1017.9 |
| 20260906191042 | 26 | 51 | 8.0 | 16.1 | 0.00 | 0.00 | 0.00 | 66 | 1018.1 |
| 20260906190538 | 26 | 137 | 4.8 | 14.5 | 0.00 | 0.00 | 0.00 | 66 | 1018.2 |
| 20260906190104 | 26 | 134 | 4.8 | 14.5 | 0.00 | 0.00 | 0.00 | 65 | 1018.3 |
| 20260906185543 | 26 | 149 | 4.8 | 17.7 | 0.00 | 0.00 | 0.00 | 68 | 1018.3 |
| 20260906185040 | 26 | 149 | 4.8 | 17.7 | 0.00 | 0.00 | 0.00 | 68 | 1018.3 |
| 20260906184602 | 26 | 84 | 4.8 | 14.5 | 0.00 | 0.00 | 0.00 | 68 | 1018.3 |
| 20260906184041 | 26 | 169 | 4.8 | 14.5 | 0.00 | 0.00 | 0.00 | 69 | 1018.3 |
| 20260906183542 | 25 | 157 | 4.8 | 16.1 | 0.00 | 0.00 | 0.00 | 68 | 1018.3 |
| 20260906183106 | 25 | 180 | 4.8 | 24.1 | 0.00 | 0.00 | 0.00 | 69 | 1018.3 |
| 20260906182544 | 25 | 109 | 6.4 | 24.1 | 0.00 | 0.00 | 0.00 | 69 | 1018.4 |
| 20260906182044 | 25 | 142 | 8.0 | 22.5 | 0.00 | 0.00 | 0.00 | 69 | 1018.3 |
| 20260906181632 | 25 | 79 | 4.8 | 14.5 | 0.00 | 0.00 | 0.00 | 71 | 1018.3 |
| 20260906181042 | 25 | 144 | 4.8 | 16.1 | 0.00 | 0.00 | 0.00 | 70 | 1018.3 |
| 20260906180542 | 25 | 38 | 6.4 | 16.1 | 0.00 | 0.00 | 0.00 | 70 | 1018.3 |
| 20260906180106 | 25 | 105 | 6.4 | 16.1 | 0.00 | 0.00 | 0.00 | 70 | 1018.4 |
| 20260906175540 | 25 | 38 | 3.2 | 12.9 | 0.00 | 0.00 | 0.00 | 69 | 1018.2 |
| 20260906175041 | 25 | 134 | 6.4 | 12.9 | 0.00 | 0.00 | 0.00 | 70 | 1018.3 |
| 20260906174610 | 25 | 67 | 4.8 | 11.3 | 0.00 | 0.00 | 0.00 | 70 | 1018.4 |
| 20260906174041 | 25 | 175 | 4.8 | 11.3 | 0.00 | 0.00 | 0.00 | 70 | 1018.5 |
| 20260906173542 | 25 | 97 | 4.8 | 11.3 | 0.00 | 0.00 | 0.00 | 70 | 1018.5 |
| 20260906173106 | 25 | 60 | 4.8 | 11.3 | 0.00 | 0.00 | 0.00 | 70 | 1018.7 |
| 20260906172540 | 25 | 93 | 4.8 | 11.3 | 0.00 | 0.00 | 0.00 | 71 | 1018.8 |
| 20260906172040 | 25 | 119 | 4.8 | 14.5 | 0.00 | 0.00 | 0.00 | 70 | 1019.0 |
| 20260906171600 | 25 | 100 | 3.2 | 14.5 | 0.00 | 0.00 | 0.00 | 70 | 1019.0 |
| 20260906171040 | 25 | 180 | 4.8 | 14.5 | 0.00 | 0.00 | 0.00 | 71 | 1019.1 |
| 20260906170540 | 25 | 130 | 4.8 | 12.9 | 0.00 | 0.00 | 0.00 | 70 | 1019.2 |
| 20260906165541 | 25 | 127 | 4.8 | 16.1 | 0.00 | 0.00 | 0.00 | 72 | 1018.8 |
| 20260906165040 | 25 | 135 | 4.8 | 20.9 | 0.00 | 0.00 | 0.00 | 72 | 1018.7 |
| 20260906164600 | 25 | 236 | 6.4 | 20.9 | 0.00 | 0.00 | 0.00 | 74 | 1018.6 |
| 20260906164041 | 24 | 165 | 6.4 | 25.7 | 0.00 | 0.00 | 0.00 | 73 | 1018.6 |
| 20260906163541 | 24 | 105 | 9.7 | 25.7 | 0.00 | 0.00 | 0.00 | 74 | 1018.7 |
| 20260906163102 | 24 | 150 | 6.4 | 24.1 | 0.00 | 0.00 | 0.00 | 76 | 1018.7 |
| 20260906162541 | 24 | 207 | 8.0 | 24.1 | 0.00 | 0.00 | 0.00 | 76 | 1018.7 |
| 20260906162043 | 24 | 190 | 8.0 | 20.9 | 0.00 | 0.00 | 0.00 | 76 | 1018.8 |
| 20260906161608 | 23 | 192 | 8.0 | 17.7 | 0.00 | 0.00 | 0.00 | 78 | 1018.8 |
| 20260906161041 | 23 | 148 | 6.4 | 17.7 | 0.00 | 0.00 | 0.00 | 79 | 1019.0 |
| 20260906160540 | 23 | 149 | 6.4 | 17.7 | 0.00 | 0.00 | 0.00 | 79 | 1018.9 |
| 20260906155539 | 22 | 181 | 8.0 | 19.3 | 0.00 | 0.00 | 0.00 | 81 | 1019.1 |
| 20260906155039 | 22 | 179 | 8.0 | 19.3 | 0.00 | 0.00 | 0.00 | 81 | 1019.0 |
| 20260906154559 | 22 | 182 | 9.7 | 16.1 | 0.00 | 0.00 | 0.00 | 82 | 1019.0 |
| 20260906154039 | 22 | 141 | 6.4 | 16.1 | 0.00 | 0.00 | 0.00 | 82 | 1019.1 |
| 20260906153538 | 22 | 131 | 8.0 | 14.5 | 0.00 | 0.00 | 0.00 | 83 | 1019.1 |
| 20260906153110 | 22 | 200 | 4.8 | 14.5 | 0.00 | 0.00 | 0.00 | 83 | 1019.3 |
| 20260906152538 | 21 | 148 | 4.8 | 11.3 | 0.00 | 0.00 | 0.00 | 85 | 1019.3 |
| 20260906152044 | 21 | 174 | 6.4 | 11.3 | 0.00 | 0.00 | 0.00 | 85 | 1019.2 |
| 20260906151600 | 21 | 191 | 3.2 | 11.3 | 0.00 | 0.00 | 0.00 | 87 | 1019.2 |
| 20260906151038 | 21 | 111 | 4.8 | 11.3 | 0.00 | 0.00 | 0.00 | 88 | 1019.3 |
| 20260906150542 | 20 | 103 | 4.8 | 16.1 | 0.00 | 0.00 | 0.00 | 89 | 1019.4 |
| 20260906145541 | 20 | 164 | 3.2 | 12.9 | 0.00 | 0.00 | 0.00 | 90 | 1019.2 |
| 20260906145041 | 20 | 183 | 4.8 | 12.9 | 0.00 | 0.00 | 0.00 | 91 | 1019.3 |
| 20260906144603 | 19 | 132 | 4.8 | 12.9 | 0.00 | 0.00 | 0.00 | 91 | 1019.4 |
| 20260906144043 | 19 | 130 | 4.8 | 11.3 | 0.00 | 0.00 | 0.00 | 91 | 1019.4 |
| 20260906143539 | 19 | 88 | 1.6 | 9.7 | 0.00 | 0.00 | 0.00 | 92 | 1019.5 |
| 20260906143101 | 19 | 146 | 3.2 | 9.7 | 0.00 | 0.00 | 0.00 | 92 | 1019.5 |
| 20260906142538 | 19 | 70 | 3.2 | 9.7 | 0.00 | 0.00 | 0.00 | 92 | 1019.6 |
| 20260906142039 | 18 | 109 | 3.2 | 6.4 | 0.00 | 0.00 | 0.00 | 93 | 1019.5 |
| 20260906141604 | 18 | 150 | 1.6 | 8.0 | 0.00 | 0.00 | 0.00 | 93 | 1019.5 |
| 20260906141038 | 18 | 138 | 1.6 | 8.0 | 0.00 | 0.00 | 0.00 | 93 | 1019.6 |
| 20260906140539 | 18 | 142 | 3.2 | 9.7 | 0.00 | 0.00 | 0.00 | 93 | 1019.7 |
| 20260906140108 | 18 | 127 | 3.2 | 12.9 | 0.00 | 0.00 | 0.00 | 93 | 1019.7 |
| 20260906135541 | 18 | 142 | 4.8 | 14.5 | 0.00 | 0.00 | 0.00 | 93 | 1019.7 |
| 20260906135039 | 18 | 167 | 4.8 | 14.5 | 0.00 | 0.00 | 0.00 | 93 | 1019.6 |
| 20260906134605 | 18 | 139 | 1.6 | 4.8 | 0.00 | 0.00 | 0.00 | 94 | 1019.7 |
| 20260906134041 | 18 | 90 | 1.6 | 6.4 | 0.00 | 0.00 | 0.00 | 94 | 1019.8 |
| 20260906133541 | 17 | 117 | 3.2 | 8.0 | 0.00 | 0.00 | 0.00 | 94 | 1019.7 |
| 20260906133113 | 17 | 190 | 1.6 | 8.0 | 0.00 | 0.00 | 0.00 | 94 | 1019.6 |
| 20260906132544 | 17 | 115 | 3.2 | 12.9 | 0.00 | 0.00 | 0.00 | 94 | 1019.6 |
| 20260906132039 | 17 | 155 | 1.6 | 12.9 | 0.00 | 0.00 | 0.00 | 94 | 1019.5 |
| 20260906131600 | 17 | 106 | 3.2 | 12.9 | 0.00 | 0.00 | 0.00 | 94 | 1019.4 |
| 20260906131040 | 17 | 49 | 3.2 | 9.7 | 0.00 | 0.00 | 0.00 | 94 | 1019.5 |
| 20260906130542 | 17 | 113 | 1.6 | 9.7 | 0.00 | 0.00 | 0.00 | 94 | 1019.2 |
| 20260906130112 | 17 | 92 | 1.6 | 11.3 | 0.00 | 0.00 | 0.00 | 94 | 1019.1 |
| 20260906125544 | 17 | 136 | 1.6 | 11.3 | 0.00 | 0.00 | 0.00 | 94 | 1019.0 |
| 20260906125043 | 17 | 171 | 3.2 | 11.3 | 0.00 | 0.00 | 0.00 | 94 | 1019.0 |
| 20260906124608 | 17 | 86 | 1.6 | 9.7 | 0.00 | 0.00 | 0.00 | 94 | 1019.1 |
| 20260906124044 | 17 | 132 | 1.6 | 9.7 | 0.00 | 0.00 | 0.00 | 94 | 1019.1 |
| 20260906123540 | 17 | 95 | 3.2 | 9.7 | 0.00 | 0.00 | 0.00 | 94 | 1019.0 |
| 20260906123101 | 17 | 95 | 1.6 | 6.4 | 0.00 | 0.00 | 0.00 | 94 | 1019.1 |
| 20260906122540 | 17 | 106 | 3.2 | 11.3 | 0.00 | 0.00 | 0.00 | 94 | 1019.1 |
| 20260906122042 | 17 | 142 | 1.6 | 11.3 | 0.00 | 0.00 | 0.00 | 93 | 1019.0 |
| 20260906121608 | 16 | 84 | 1.6 | 6.4 | 0.00 | 0.00 | 0.00 | 93 | 1019.0 |
| 20260906121040 | 16 | 47 | 3.2 | 9.7 | 0.00 | 0.00 | 0.00 | 93 | 1018.8 |
| 20260906120541 | 16 | 134 | 1.6 | 9.7 | 0.00 | 0.00 | 0.00 | 93 | 1018.7 |
| 20260906120100 | 16 | 124 | 3.2 | 11.3 | 0.00 | 0.00 | 0.00 | 93 | 1018.8 |
| 20260906115542 | 16 | 80 | 3.2 | 11.3 | 0.00 | 0.00 | 0.00 | 93 | 1018.9 |
| 20260906115041 | 16 | 95 | 4.8 | 11.3 | 0.00 | 0.00 | 0.00 | 93 | 1018.9 |
| 20260906114625 | 16 | 84 | 3.2 | 11.3 | 0.00 | 0.00 | 0.00 | 93 | 1018.9 |
| 20260906114040 | 16 | 46 | 4.8 | 9.7 | 0.00 | 0.00 | 0.00 | 93 | 1018.9 |
| 20260906113541 | 16 | 106 | 3.2 | 11.3 | 0.00 | 0.00 | 0.00 | 93 | 1019.0 |
| 20260906113113 | 16 | 161 | 4.8 | 11.3 | 0.00 | 0.00 | 0.00 | 93 | 1019.1 |
| 20260906112541 | 16 | 90 | 4.8 | 9.7 | 0.00 | 0.00 | 0.00 | 92 | 1018.9 |
| 20260906112040 | 16 | 79 | 3.2 | 9.7 | 0.00 | 0.00 | 0.00 | 92 | 1018.7 |
| 20260906111558 | 16 | 143 | 1.6 | 8.0 | 0.00 | 0.00 | 0.00 | 92 | 1018.7 |
| 20260906111041 | 16 | 65 | 3.2 | 8.0 | 0.00 | 0.00 | 0.00 | 92 | 1018.8 |
| 20260906110541 | 16 | 115 | 1.6 | 6.4 | 0.00 | 0.00 | 0.00 | 92 | 1018.7 |
| 20260906110059 | 16 | 141 | 3.2 | 9.7 | 0.00 | 0.00 | 0.00 | 92 | 1018.6 |
| 20260906105541 | 17 | 84 | 3.2 | 9.7 | 0.00 | 0.00 | 0.00 | 92 | 1018.7 |
| 20260906105043 | 17 | 76 | 1.6 | 9.7 | 0.00 | 0.00 | 0.00 | 92 | 1018.7 |
| 20260906104602 | 17 | 168 | 1.6 | 12.9 | 0.00 | 0.00 | 0.00 | 92 | 1018.7 |
| 20260906104041 | 17 | 126 | 3.2 | 12.9 | 0.00 | 0.00 | 0.00 | 92 | 1018.7 |
| 20260906103541 | 17 | 69 | 1.6 | 8.0 | 0.00 | 0.00 | 0.00 | 92 | 1018.6 |
| 20260906103100 | 17 | 36 | 3.2 | 11.3 | 0.00 | 0.00 | 0.00 | 92 | 1018.6 |
| 20260906102541 | 17 | 120 | 1.6 | 11.3 | 0.00 | 0.00 | 0.00 | 92 | 1018.5 |
| 20260906102043 | 17 | 150 | 1.6 | 11.3 | 0.00 | 0.00 | 0.00 | 92 | 1018.6 |
| 20260906101602 | 17 | 84 | 3.2 | 11.3 | 0.00 | 0.00 | 0.00 | 92 | 1018.5 |
| 20260906101041 | 17 | 92 | 3.2 | 11.3 | 0.00 | 0.00 | 0.00 | 92 | 1018.3 |
| 20260906100541 | 17 | 96 | 1.6 | 6.4 | 0.00 | 0.00 | 0.00 | 92 | 1018.2 |
| 20260906100106 | 17 | 64 | 1.6 | 6.4 | 0.00 | 0.00 | 0.00 | 92 | 1018.3 |
| 20260906095541 | 17 | 95 | 1.6 | 6.4 | 0.00 | 0.00 | 0.00 | 92 | 1018.0 |
| 20260906095041 | 17 | 99 | 3.2 | 6.4 | 0.00 | 0.00 | 0.00 | 92 | 1017.9 |
| 20260906094559 | 17 | 82 | 3.2 | 6.4 | 0.00 | 0.00 | 0.00 | 92 | 1017.8 |
| 20260906094040 | 17 | 121 | 1.6 | 6.4 | 0.00 | 0.00 | 0.00 | 92 | 1017.6 |
| 20260906093541 | 17 | 86 | 1.6 | 8.0 | 0.00 | 0.00 | 0.00 | 92 | 1017.7 |
| 20260906093105 | 17 | 94 | 3.2 | 8.0 | 0.00 | 0.00 | 0.00 | 92 | 1017.7 |
| 20260906092541 | 17 | 169 | 1.6 | 8.0 | 0.00 | 0.00 | 0.00 | 92 | 1017.6 |
| 20260906092045 | 17 | 138 | 3.2 | 8.0 | 0.00 | 0.00 | 0.00 | 92 | 1017.6 |
| 20260906091619 | 17 | 63 | 1.6 | 8.0 | 0.00 | 0.00 | 0.00 | 92 | 1017.6 |
| 20260906091038 | 17 | 68 | 1.6 | 9.7 | 0.00 | 0.00 | 0.00 | 92 | 1017.6 |
| 20260906090541 | 17 | 78 | 1.6 | 9.7 | 0.00 | 0.00 | 0.00 | 92 | 1017.7 |
| 20260906090106 | 17 | 107 | 3.2 | 6.4 | 0.00 | 0.00 | 0.00 | 91 | 1017.8 |
| 20260906085538 | 17 | 80 | 1.6 | 6.4 | 0.00 | 0.00 | 0.00 | 92 | 1017.8 |
| 20260906085043 | 17 | 152 | 1.6 | 6.4 | 0.00 | 0.00 | 0.00 | 92 | 1017.9 |
| 20260906084601 | 17 | 65 | 1.6 | 6.4 | 0.00 | 0.00 | 0.00 | 91 | 1017.9 |
| 20260906084041 | 17 | 198 | 1.6 | 6.4 | 0.00 | 0.00 | 0.00 | 91 | 1017.8 |
| 20260906083538 | 17 | 166 | 1.6 | 6.4 | 0.00 | 0.00 | 0.00 | 91 | 1017.8 |
| 20260906083059 | 17 | 132 | 3.2 | 8.0 | 0.00 | 0.00 | 0.00 | 91 | 1017.8 |
| 20260906082540 | 17 | 134 | 1.6 | 8.0 | 0.00 | 0.00 | 0.00 | 91 | 1017.8 |
| 20260906082041 | 17 | 175 | 3.2 | 9.7 | 0.00 | 0.00 | 0.00 | 91 | 1017.8 |
| 20260906081602 | 17 | 114 | 3.2 | 9.7 | 0.00 | 0.00 | 0.00 | 91 | 1017.9 |
| 20260906081040 | 17 | 60 | 1.6 | 8.0 | 0.00 | 0.00 | 0.00 | 91 | 1018.0 |
| 20260906080543 | 17 | 78 | 1.6 | 9.7 | 0.00 | 0.00 | 0.00 | 91 | 1018.0 |
| 20260906080109 | 17 | 132 | 3.2 | 11.3 | 0.00 | 0.00 | 0.00 | 92 | 1018.1 |
| 20260906075541 | 17 | 142 | 3.2 | 11.3 | 0.00 | 0.00 | 0.00 | 92 | 1018.1 |
| 20260906075041 | 17 | 107 | 3.2 | 9.7 | 0.00 | 0.00 | 0.00 | 92 | 1018.1 |
| 20260906074602 | 17 | 78 | 1.6 | 11.3 | 0.00 | 0.00 | 0.00 | 92 | 1018.2 |
| 20260906074040 | 17 | 37 | 1.6 | 11.3 | 0.00 | 0.00 | 0.00 | 92 | 1018.3 |
| 20260906073541 | 17 | 48 | 1.6 | 11.3 | 0.00 | 0.00 | 0.00 | 92 | 1018.3 |
| 20260906073100 | 17 | 84 | 3.2 | 9.7 | 0.00 | 0.00 | 0.00 | 92 | 1018.2 |
| 20260906072544 | 17 | 108 | 3.2 | 9.7 | 0.00 | 0.00 | 0.00 | 92 | 1018.3 |
| 20260906072040 | 17 | 136 | 1.6 | 6.4 | 0.00 | 0.00 | 0.00 | 92 | 1018.3 |
| 20260906071608 | 17 | 136 | 1.6 | 6.4 | 0.00 | 0.00 | 0.00 | 92 | 1018.4 |
| 20260906071040 | 17 | 93 | 1.6 | 4.8 | 0.00 | 0.00 | 0.00 | 92 | 1018.5 |
| 20260906070541 | 17 | 89 | 1.6 | 3.2 | 0.00 | 0.00 | 0.00 | 92 | 1018.6 |
| 20260906065543 | 17 | 89 | 0.0 | 3.2 | 0.00 | 0.00 | 0.00 | 91 | 1018.6 |
| 20260906065041 | 17 | 149 | 1.6 | 4.8 | 0.00 | 0.00 | 0.00 | 91 | 1018.6 |
| 20260906064603 | 17 | 82 | 1.6 | 6.4 | 0.00 | 0.00 | 0.00 | 91 | 1018.5 |
| 20260906064041 | 17 | 63 | 1.6 | 6.4 | 0.00 | 0.00 | 0.00 | 91 | 1018.5 |
| 20260906063544 | 17 | 132 | 3.2 | 6.4 | 0.00 | 0.00 | 0.00 | 91 | 1018.5 |
| 20260906063100 | 17 | 100 | 3.2 | 6.4 | 0.00 | 0.00 | 0.00 | 91 | 1018.5 |
| 20260906062542 | 17 | 80 | 1.6 | 6.4 | 0.00 | 0.00 | 0.00 | 91 | 1018.5 |
| 20260906062044 | 17 | 138 | 1.6 | 4.8 | 0.00 | 0.00 | 0.00 | 91 | 1018.5 |
| 20260906061605 | 17 | 140 | 1.6 | 4.8 | 0.00 | 0.00 | 0.00 | 91 | 1018.5 |
| 20260906061041 | 17 | 53 | 1.6 | 8.0 | 0.00 | 0.00 | 0.00 | 91 | 1018.6 |
| 20260906060541 | 17 | 167 | 3.2 | 8.0 | 0.00 | 0.00 | 0.00 | 91 | 1018.5 |
| 20260906060150 | 17 | 93 | 1.6 | 9.7 | 0.00 | 0.00 | 0.00 | 91 | 1018.5 |
| 20260906055541 | 17 | 106 | 3.2 | 9.7 | 0.00 | 0.00 | 0.00 | 91 | 1018.5 |
| 20260906055041 | 17 | 76 | 3.2 | 9.7 | 0.00 | 0.00 | 0.00 | 91 | 1018.4 |
| 20260906054554 | 17 | 70 | 1.6 | 9.7 | 0.00 | 0.00 | 0.00 | 91 | 1018.4 |
| 20260906054041 | 17 | 32 | 3.2 | 9.7 | 0.00 | 0.00 | 0.00 | 91 | 1018.4 |
| 20260906053545 | 17 | 103 | 3.2 | 9.7 | 0.00 | 0.00 | 0.00 | 91 | 1018.4 |
| 20260906053102 | 17 | 44 | 3.2 | 9.7 | 0.00 | 0.00 | 0.00 | 91 | 1018.4 |
| 20260906052541 | 17 | 70 | 3.2 | 8.0 | 0.00 | 0.00 | 0.00 | 91 | 1018.4 |
| 20260906052041 | 17 | 129 | 4.8 | 9.7 | 0.00 | 0.00 | 0.00 | 90 | 1018.3 |
| 20260906051559 | 18 | 78 | 3.2 | 9.7 | 0.00 | 0.00 | 0.00 | 90 | 1018.2 |
| 20260906051041 | 18 | 82 | 1.6 | 9.7 | 0.00 | 0.00 | 0.00 | 90 | 1018.1 |
| 20260906050541 | 18 | 76 | 1.6 | 9.7 | 0.00 | 0.00 | 0.00 | 90 | 1018.2 |
| 20260906050114 | 18 | 80 | 3.2 | 8.0 | 0.00 | 0.00 | 0.00 | 90 | 1018.2 |
| 20260906045541 | 18 | 69 | 1.6 | 6.4 | 0.00 | 0.00 | 0.00 | 90 | 1018.2 |
| 20260906045041 | 18 | 33 | 3.2 | 8.0 | 0.00 | 0.00 | 0.00 | 90 | 1018.2 |
| 20260906044601 | 18 | 74 | 3.2 | 8.0 | 0.00 | 0.00 | 0.00 | 89 | 1018.4 |
| 20260906044044 | 18 | 51 | 1.6 | 9.7 | 0.00 | 0.00 | 0.00 | 89 | 1018.5 |
| 20260906043540 | 18 | 80 | 3.2 | 9.7 | 0.00 | 0.00 | 0.00 | 89 | 1018.6 |
| 20260906043105 | 18 | 61 | 3.2 | 6.4 | 0.00 | 0.00 | 0.00 | 89 | 1018.5 |
| 20260906042541 | 18 | 59 | 1.6 | 6.4 | 0.00 | 0.00 | 0.00 | 89 | 1018.5 |
| 20260906042041 | 18 | 80 | 1.6 | 9.7 | 0.00 | 0.00 | 0.00 | 89 | 1018.5 |
| 20260906041601 | 18 | 55 | 1.6 | 9.7 | 0.00 | 0.00 | 0.00 | 89 | 1018.2 |
| 20260906041041 | 18 | 109 | 0.0 | 11.3 | 0.00 | 0.00 | 0.00 | 89 | 1018.2 |
| 20260906040539 | 18 | 56 | 3.2 | 11.3 | 0.00 | 0.00 | 0.00 | 88 | 1018.2 |
| 20260906040111 | 18 | 73 | 1.6 | 4.8 | 0.00 | 0.00 | 0.00 | 88 | 1018.3 |
| 20260906035542 | 19 | 101 | 1.6 | 3.2 | 0.00 | 0.00 | 0.00 | 88 | 1018.4 |
| 20260906035041 | 19 | 98 | 0.0 | 3.2 | 0.00 | 0.00 | 0.00 | 88 | 1018.4 |
| 20260906034603 | 19 | 102 | 0.0 | 3.2 | 0.00 | 0.00 | 0.00 | 88 | 1018.4 |
| 20260906034042 | 19 | 0 | 0.0 | 6.4 | 0.00 | 0.00 | 0.00 | 88 | 1018.3 |
| 20260906033540 | 19 | 69 | 1.6 | 6.4 | 0.00 | 0.00 | 0.00 | 87 | 1018.3 |
| 20260906033104 | 19 | 76 | 1.6 | 6.4 | 0.00 | 0.00 | 0.00 | 87 | 1018.4 |
| 20260906032541 | 19 | 123 | 1.6 | 4.8 | 0.00 | 0.00 | 0.00 | 87 | 1018.5 |
| 20260906032041 | 19 | 50 | 0.0 | 4.8 | 0.00 | 0.00 | 0.00 | 87 | 1018.4 |
| 20260906031630 | 19 | 61 | 1.6 | 6.4 | 0.00 | 0.00 | 0.00 | 87 | 1018.3 |
| 20260906031038 | 20 | 83 | 1.6 | 6.4 | 0.00 | 0.00 | 0.00 | 87 | 1018.3 |
| 20260906030541 | 20 | 122 | 1.6 | 4.8 | 0.00 | 0.00 | 0.00 | 87 | 1018.3 |
| 20260906030109 | 20 | 92 | 0.0 | 3.2 | 0.00 | 0.00 | 0.00 | 87 | 1018.3 |
| 20260906025541 | 20 | 90 | 1.6 | 4.8 | 0.00 | 0.00 | 0.00 | 86 | 1018.4 |
| 20260906025041 | 20 | 44 | 0.0 | 4.8 | 0.00 | 0.00 | 0.00 | 86 | 1018.3 |
| 20260906024605 | 20 | 101 | 1.6 | 6.4 | 0.00 | 0.00 | 0.00 | 86 | 1018.4 |
| 20260906024040 | 20 | 93 | 1.6 | 6.4 | 0.00 | 0.00 | 0.00 | 86 | 1018.4 |
| 20260906023541 | 20 | 51 | 1.6 | 6.4 | 0.00 | 0.00 | 0.00 | 86 | 1018.3 |
| 20260906023112 | 20 | 54 | 1.6 | 3.2 | 0.00 | 0.00 | 0.00 | 86 | 1018.3 |
| 20260906022541 | 20 | 65 | 0.0 | 3.2 | 0.00 | 0.00 | 0.00 | 86 | 1018.3 |
| 20260906022041 | 20 | 57 | 1.6 | 3.2 | 0.00 | 0.00 | 0.00 | 85 | 1018.3 |
| 20260906021605 | 20 | 119 | 0.0 | 3.2 | 0.00 | 0.00 | 0.00 | 85 | 1018.3 |
| 20260906021041 | 20 | 92 | 0.0 | 3.2 | 0.00 | 0.00 | 0.00 | 85 | 1018.4 |
| 20260906020540 | 20 | 79 | 0.0 | 3.2 | 0.00 | 0.00 | 0.00 | 85 | 1018.4 |
| 20260906015539 | 20 | 82 | 1.6 | 4.8 | 0.00 | 0.00 | 0.00 | 84 | 1018.3 |
| 20260906015041 | 20 | 76 | 1.6 | 6.4 | 0.00 | 0.00 | 0.00 | 84 | 1018.3 |
| 20260906014612 | 21 | 78 | 1.6 | 6.4 | 0.00 | 0.00 | 0.00 | 83 | 1018.1 |
| 20260906014040 | 21 | 57 | 1.6 | 11.3 | 0.00 | 0.00 | 0.00 | 83 | 1017.9 |
| 20260906013541 | 21 | 44 | 1.6 | 11.3 | 0.00 | 0.00 | 0.00 | 82 | 1017.9 |
| 20260906013104 | 21 | 112 | 3.2 | 8.0 | 0.00 | 0.00 | 0.00 | 82 | 1017.9 |
| 20260906012542 | 21 | 91 | 3.2 | 8.0 | 0.00 | 0.00 | 0.00 | 82 | 1017.6 |
| 20260906012039 | 21 | 42 | 1.6 | 8.0 | 0.00 | 0.00 | 0.00 | 82 | 1017.6 |
| 20260906011610 | 21 | 45 | 1.6 | 8.0 | 0.00 | 0.00 | 0.00 | 81 | 1017.5 |
| 20260906011042 | 21 | 25 | 1.6 | 4.8 | 0.00 | 0.00 | 0.00 | 81 | 1017.3 |
| 20260906010540 | 21 | 39 | 1.6 | 6.4 | 0.00 | 0.00 | 0.00 | 81 | 1017.0 |
| 20260906010111 | 22 | 28 | 1.6 | 6.4 | 0.00 | 0.00 | 0.00 | 80 | 1017.0 |
| 20260906005540 | 22 | 89 | 3.2 | 6.4 | 0.00 | 0.00 | 0.00 | 80 | 1016.9 |
| 20260906005041 | 22 | 135 | 3.2 | 6.4 | 0.00 | 0.00 | 0.00 | 79 | 1016.7 |
| 20260906004600 | 22 | 102 | 1.6 | 6.4 | 0.00 | 0.00 | 0.00 | 78 | 1016.6 |
| 20260906004041 | 22 | 36 | 1.6 | 9.7 | 0.00 | 0.00 | 0.00 | 78 | 1016.6 |
| 20260906003541 | 22 | 82 | 3.2 | 9.7 | 0.00 | 0.00 | 0.00 | 77 | 1016.4 |
| 20260906003104 | 23 | 48 | 3.2 | 14.5 | 0.00 | 0.00 | 0.00 | 77 | 1016.3 |
| 20260906002540 | 23 | 27 | 3.2 | 14.5 | 0.00 | 0.00 | 0.00 | 76 | 1016.0 |
| 20260906002052 | 23 | 33 | 3.2 | 6.4 | 0.00 | 0.00 | 0.00 | 75 | 1015.9 |
| 20260906001601 | 24 | 38 | 1.6 | 11.3 | 0.00 | 0.00 | 0.00 | 75 | 1015.8 |
| 20260906001040 | 24 | 32 | 3.2 | 11.3 | 0.00 | 0.00 | 0.00 | 75 | 1015.8 |
| 20260906000540 | 24 | 74 | 3.2 | 11.3 | 0.00 | 0.00 | 0.00 | 74 | 1015.9 |
| 20260906000109 | 25 | 107 | 3.2 | 6.4 | 0.00 | 0.00 | 0.00 | 73 | 1015.8 |
| 20260905235543 | 25 | 112 | 1.6 | 9.7 | 0.00 | 0.00 | 0.00 | 73 | 1015.8 |
| 20260905235041 | 25 | 119 | 1.6 | 9.7 | 0.00 | 0.00 | 0.00 | 73 | 1015.7 |
| 20260905234559 | 25 | 94 | 3.2 | 11.3 | 0.00 | 0.00 | 0.00 | 73 | 1015.6 |
| 20260905234041 | 25 | 115 | 3.2 | 16.1 | 0.00 | 0.00 | 0.00 | 73 | 1015.5 |
| 20260905233541 | 25 | 78 | 8.0 | 16.1 | 0.00 | 0.00 | 0.00 | 73 | 1015.7 |
| 20260905233107 | 25 | 63 | 3.2 | 17.7 | 0.00 | 0.00 | 0.00 | 73 | 1015.5 |
| 20260905232543 | 25 | 117 | 4.8 | 17.7 | 0.00 | 0.00 | 0.00 | 73 | 1015.6 |
| 20260905232041 | 25 | 71 | 6.4 | 17.7 | 0.00 | 0.00 | 0.00 | 72 | 1015.7 |
| 20260905231618 | 25 | 49 | 3.2 | 16.1 | 0.00 | 0.00 | 0.00 | 73 | 1015.7 |
| 20260905231041 | 25 | 87 | 3.2 | 16.1 | 0.00 | 0.00 | 0.00 | 73 | 1015.7 |
| 20260905230541 | 24 | 73 | 6.4 | 16.1 | 0.00 | 0.00 | 0.00 | 72 | 1015.7 |
| 20260905230108 | 25 | 75 | 6.4 | 14.5 | 0.00 | 0.00 | 0.00 | 72 | 1015.6 |
| 20260905225540 | 25 | 143 | 4.8 | 12.9 | 0.00 | 0.00 | 0.00 | 72 | 1015.7 |
| 20260905225038 | 25 | 47 | 1.6 | 14.5 | 0.00 | 0.00 | 0.00 | 72 | 1015.8 |
| 20260905224603 | 25 | 59 | 3.2 | 14.5 | 0.00 | 0.00 | 0.00 | 72 | 1015.8 |
| 20260905224041 | 25 | 94 | 6.4 | 14.5 | 0.00 | 0.00 | 0.00 | 72 | 1015.9 |
| 20260905223540 | 25 | 57 | 6.4 | 14.5 | 0.00 | 0.00 | 0.00 | 72 | 1016.0 |
| 20260905223105 | 25 | 86 | 4.8 | 17.7 | 0.00 | 0.00 | 0.00 | 71 | 1015.9 |
| 20260905222541 | 25 | 69 | 6.4 | 17.7 | 0.00 | 0.00 | 0.00 | 71 | 1016.0 |
| 20260905222041 | 25 | 55 | 4.8 | 12.9 | 0.00 | 0.00 | 0.00 | 70 | 1016.2 |
| 20260905221621 | 25 | 5 | 4.8 | 12.9 | 0.00 | 0.00 | 0.00 | 72 | 1016.3 |
| 20260905221041 | 24 | 9 | 4.8 | 14.5 | 0.00 | 0.00 | 0.00 | 73 | 1016.4 |
| 20260905220541 | 24 | 71 | 6.4 | 14.5 | 0.00 | 0.00 | 0.00 | 72 | 1016.7 |
| 20260905220106 | 24 | 31 | 6.4 | 12.9 | 0.00 | 0.00 | 0.00 | 72 | 1016.7 |
| 20260905215541 | 24 | 37 | 6.4 | 9.7 | 0.00 | 0.00 | 0.00 | 73 | 1016.7 |
| 20260905215042 | 24 | 67 | 4.8 | 12.9 | 0.00 | 0.00 | 0.00 | 72 | 1016.8 |
| 20260905214606 | 24 | 38 | 4.8 | 12.9 | 0.00 | 0.00 | 0.00 | 72 | 1016.9 |
| 20260905214042 | 24 | 69 | 6.4 | 12.9 | 0.00 | 0.00 | 0.00 | 72 | 1017.0 |
| 20260905213542 | 24 | 62 | 4.8 | 12.9 | 0.00 | 0.00 | 0.00 | 73 | 1017.1 |
| 20260905213105 | 24 | 101 | 4.8 | 16.1 | 0.00 | 0.00 | 0.00 | 73 | 1017.3 |
| 20260905212543 | 24 | 27 | 3.2 | 16.1 | 0.00 | 0.00 | 0.00 | 74 | 1017.3 |
| 20260905212042 | 23 | 28 | 6.4 | 16.1 | 0.00 | 0.00 | 0.00 | 74 | 1017.4 |
| 20260905211600 | 23 | 76 | 6.4 | 14.5 | 0.00 | 0.00 | 0.00 | 74 | 1017.3 |
| 20260905211041 | 23 | 59 | 6.4 | 19.3 | 0.00 | 0.00 | 0.00 | 74 | 1017.3 |
| 20260905210545 | 23 | 33 | 6.4 | 19.3 | 0.00 | 0.00 | 0.00 | 75 | 1017.4 |
| 20260905210114 | 23 | 55 | 6.4 | 19.3 | 0.00 | 0.00 | 0.00 | 74 | 1017.4 |
| 20260905205541 | 23 | 40 | 3.2 | 11.3 | 0.00 | 0.00 | 0.00 | 74 | 1017.5 |
| 20260905205041 | 23 | 48 | 3.2 | 12.9 | 0.00 | 0.00 | 0.00 | 75 | 1017.6 |
| 20260905204605 | 23 | 26 | 6.4 | 14.5 | 0.00 | 0.00 | 0.00 | 76 | 1017.6 |
| 20260905204041 | 23 | 31 | 4.8 | 17.7 | 0.00 | 0.00 | 0.00 | 74 | 1017.8 |
| 20260905203540 | 23 | 12 | 9.7 | 17.7 | 0.00 | 0.00 | 0.00 | 74 | 1017.6 |
| 20260905203102 | 23 | 63 | 6.4 | 9.7 | 0.00 | 0.00 | 0.00 | 74 | 1017.6 |
| 20260905202540 | 24 | 34 | 3.2 | 12.9 | 0.00 | 0.00 | 0.00 | 72 | 1017.7 |
| 20260905202043 | 24 | 51 | 3.2 | 12.9 | 0.00 | 0.00 | 0.00 | 73 | 1017.9 |
| 20260905201600 | 23 | 80 | 6.4 | 12.9 | 0.00 | 0.00 | 0.00 | 74 | 1017.8 |
| 20260905201042 | 23 | 5 | 3.2 | 16.1 | 0.00 | 0.00 | 0.00 | 75 | 1017.9 |
| 20260905200542 | 23 | 360 | 6.4 | 16.1 | 0.00 | 0.00 | 0.00 | 74 | 1017.8 |
| 20260905200130 | 23 | 119 | 4.8 | 11.3 | 0.00 | 0.00 | 0.00 | 74 | 1017.9 |
| 20260905195543 | 23 | 94 | 4.8 | 11.3 | 0.00 | 0.00 | 0.00 | 74 | 1018.1 |
| 20260905195041 | 23 | 72 | 4.8 | 8.0 | 0.00 | 0.00 | 0.00 | 74 | 1018.1 |
| 20260905194603 | 23 | 76 | 4.8 | 8.0 | 0.00 | 0.00 | 0.00 | 75 | 1018.2 |
| 20260905194042 | 23 | 152 | 4.8 | 9.7 | 0.00 | 0.00 | 0.00 | 74 | 1018.2 |
| 20260905193541 | 23 | 131 | 1.6 | 11.3 | 0.00 | 0.00 | 0.00 | 76 | 1018.2 |
| 20260905193100 | 23 | 90 | 3.2 | 11.3 | 0.00 | 0.00 | 0.00 | 76 | 1018.4 |
| 20260905192541 | 23 | 88 | 3.2 | 11.3 | 0.00 | 0.00 | 0.00 | 77 | 1018.5 |
| 20260905192042 | 23 | 64 | 4.8 | 11.3 | 0.00 | 0.00 | 0.00 | 76 | 1018.6 |